Regional Weather Roundup
Issued by NWS

Home | Current Version | Previous Version | Text Only | Print | Product List | Glossary On
Versions: 1 2 3 4 5 6 7 8 9 10 11 12 13 14 15 16 17 18 19 20 21 22 23 24 25 26 27
000
ASUS42 KKEY 210510
RWRKEY

FLORIDA REGIONAL WEATHER ROUNDUP FOR THE FLORIDA KEYS
NATIONAL WEATHER SERVICE KEY WEST FLORIDA
100 AM EDT MON AUG 21 2017

...SOUTH FLORIDA AND THE KEYS...

CITY           SKY/WX    TMP DP  RH WIND       PRES   REMARKS
FORT MYERS     MOCLDY    79  78  97 E3        30.08F
SW REGIONAL AP CLOUDY    79  75  87 E6        30.09F
NAPLES         MOCLDY    79  77  94 NE7       30.07F
MIAMI          MOCLDY    86  75  69 E14       30.06F HX  95
WEST KENDALL   PTCLDY    85  74  69 E9        30.05F HX  92
HOMESTEAD      PTCLDY    84  77  77 E10       30.04F HX  94
MARATHON       PTCLDY    84  80  88 E8        30.03F HX  97
BOCA CHICA NAS CLEAR     84  79  85 E12       30.03F HX  96
KEY WEST INTL  PTCLDY    85  77  77 E10       30.03F HX  95

...INTERNATIONAL WEATHER...

CITY           SKY/WX    TMP DP  RH WIND       PRES   REMARKS
NASSAU BAHAMAS PTCLDY    86  77  74 E5        30.05F HX  97
CANCUN MEXICO  LGT RAIN  77  77 100 CALM      29.98R
COZUMEL MEXICO CLOUDY    81  77  89 CALM      29.96R

ADJACENT COASTAL WATERS...

STATION/POSITION TIME  SKY/WX   TEMP    WIND        PRES    WAVE
                                AIR SEA DIR/SP/G            HT/PER
                 (UTC)          (F)     (DEG/KT/KT) (MB)    (FT/S)
PULASKI SHOAL LI 0500            84      80/ 13/ 14 1016.9F
SAND KEY         0450            85                 1017.5F
LONG KEY         NOT AVBL
MOLASSES REEF    0400                    80/ 12       N/A
FOWEY ROCKS      0400            86 86  100/ 19/ 20 1018.6R
Buoy 42097       0430               87                N/A     5/ 5

$$




USA.gov is the U.S. government's official web portal to all federal, state and local government web resources and services.